Weather History for Buffalo, WY

Change the Weather History Date:

Sunday, November 18, 2012

  Actual Average Record
Temperature  
Mean Temperature 46 °F 33 °F  
Max Temperature 52 °F 44 °F 68 °F (2008)
Min Temperature 36 °F 22 °F 12 °F (2000)
Degree Days  
Heating Degree Days 20 32  
Month to date heating degree days 506  
Since 1 July heating degree days 1412  
Cooling Degree Days 0 0  
Month to date cooling degree days 0  
Year to date cooling degree days 492  
Moisture  
Dew Point 27 °F    
Average Humidity 51    
Maximum Humidity 79    
Minimum Humidity 37    
Precipitation  
Precipitation 0.00 in 0.01 in 0.50 in (2011)
Month to date precipitation 0.31  
Year to date precipitation 12.82  
Sea Level Pressure  
Sea Level Pressure 29.83 in    
Wind  
Wind Speed 7 mph (WNW)    
Max Wind Speed 14 mph    
Max Gust Speed 24 mph    
Visibility 10 miles    
Events      
T = Trace of Precipitation, MM = Missing Value Source: NWS Daily Summary

Daily Weather History Graph

Daily Weather History Graph

Search for Another Location

Airport:

Trip Planner

Search our weather history database for the weather conditions in past years. The results will help you decide how hot, cold, wet, or windy it might be!

Date:

Astronomy

Nov. 18, 2012 Rise Set
Actual Time 7:07 AM MST 4:36 PM MST
Civil Twilight 6:35 AM MST 5:08 PM MST
Nautical Twilight 6:00 AM MST 5:43 PM MST
Astronomical Twilight 5:25 AM MST 6:17 PM MST
Moon 11:33 AM MST (11/18) 10:02 PM MST (11/18)
Length of Visible Light 10h 32m
Length of Day
9h 28m
Waxing Crescent, 31% of the Moon is Illuminated
Nov 18
Waxing Crescent
Nov 20
First Quarter
Nov 28
Full
Dec 6
Last Quarter
Dec 13
New

Hourly Weather History & Observations

Time (MST) Temp. Windchill Dew Point Humidity Pressure Visibility Wind Dir Wind Speed Gust Speed Precip Events Conditions
12:53 AM 39.9 °F 35.1 °F 24.1 °F 53% 29.81 in 10.0 mi WSW 6.9 mph - N/A   Unknown
1:53 AM 44.1 °F 38.6 °F 25.0 °F 47% 29.78 in 10.0 mi South 10.4 mph - N/A   Unknown
2:53 AM 41.0 °F 34.3 °F 27.0 °F 57% 29.76 in 10.0 mi SSW 11.5 mph - N/A   Unknown
3:53 AM 42.1 °F - 26.1 °F 53% 29.74 in 10.0 mi Calm Calm - N/A   Unknown
4:53 AM 43.0 °F 41.3 °F 21.9 °F 43% 29.75 in 10.0 mi NW 3.5 mph - N/A   Unknown
5:53 AM 44.1 °F - 23.0 °F 43% 29.75 in 10.0 mi Calm Calm - N/A   Unknown
6:53 AM 42.1 °F 36.6 °F 23.0 °F 47% 29.75 in 10.0 mi NW 9.2 mph - N/A   Unknown
7:53 AM 44.1 °F 40.8 °F 25.0 °F 47% 29.73 in 10.0 mi SW 5.8 mph - N/A   Unknown
8:53 AM 45.0 °F 40.6 °F 28.0 °F 52% 29.75 in 10.0 mi WSW 8.1 mph - N/A   Unknown
9:53 AM 46.9 °F - 28.0 °F 48% 29.75 in 10.0 mi WSW 4.6 mph - N/A   Unknown
10:53 AM 48.0 °F - 27.0 °F 44% 29.75 in 10.0 mi NNW 6.9 mph - N/A   Unknown
11:53 AM 45.0 °F 40.6 °F 28.0 °F 52% 29.75 in 10.0 mi NNW 8.1 mph - N/A   Unknown
12:53 PM 48.9 °F - 27.0 °F 43% 29.76 in 10.0 mi WNW 8.1 mph - N/A   Unknown
1:53 PM 51.1 °F - 26.1 °F 38% 29.76 in 10.0 mi NW 3.5 mph - N/A   Unknown
2:53 PM 52.0 °F - 28.0 °F 40% 29.80 in 10.0 mi North 4.6 mph - N/A   Unknown
3:53 PM 52.0 °F - 26.1 °F 37% 29.83 in 10.0 mi WNW 8.1 mph - N/A   Unknown
4:53 PM 48.0 °F - 26.1 °F 42% 29.87 in 10.0 mi NW 5.8 mph - N/A   Unknown
5:53 PM 50.0 °F - 26.1 °F 39% 29.90 in 10.0 mi North 13.8 mph 24.2 mph N/A   Unknown
6:53 PM 46.0 °F 41.0 °F 30.0 °F 54% 29.95 in 10.0 mi NNW 10.4 mph - N/A   Unknown
7:53 PM 46.0 °F 41.0 °F 30.9 °F 56% 29.96 in 10.0 mi NW 10.4 mph - N/A   Unknown
8:53 PM 41.0 °F 39.0 °F 30.9 °F 67% 30.01 in 10.0 mi NE 3.5 mph - N/A   Unknown
9:53 PM 39.0 °F 36.8 °F 30.0 °F 70% 30.02 in 10.0 mi NNW 3.5 mph - N/A   Unknown
10:53 PM 39.0 °F 36.8 °F 30.0 °F 70% 30.04 in 10.0 mi West 3.5 mph - N/A   Unknown
11:53 PM 36.0 °F 30.3 °F 30.0 °F 79% 30.06 in 10.0 mi West 6.9 mph - N/A   Unknown